Regional Weather Roundup
Issued by NWS

Home | Current Version | Previous Version | Text Only | Print | Product List | Glossary On
Versions: 1 2 3 4 5 6 7 8 9 10 11 12 13 14 15 16 17 18 19 20 21 22 23 24 25 26 27 28
000
ASUS44 KBMX 050510
RWRAL

ALABAMA REGIONAL WEATHER ROUNDUP
NATIONAL WEATHER SERVICE BIRMINGHAM AL
1200 AM CDT THU MAY 05 2016

NOTE: "FAIR" INDICATES FEW OR NO CLOUDS BELOW 12,000 FEET
WITH NO SIGNIFICANT WEATHER AND/OR OBSTRUCTIONS TO VISIBILITY.

THE REMARK "TC" DENOTES TEMPERATURE IN DEGREES CELSIUS.

ALZ001>011-014-016>018-020-050600-
NORTH ALABAMA

CITY           SKY/WX    TMP DP  RH WIND       PRES   REMARKS
MUSCLE SHOALS  MOCLDY    57  45  64 VRB6      29.88R
HUNTSVILLE     CLEAR     54  48  80 N8        29.84R
DECATUR        CLEAR     53  48  83 N10       29.85R
HALEYVILLE     FAIR      52  49  89 N6        29.87R
GADSDEN        CLEAR     51  51 100 CALM      29.83R
$$

ALZ012-013-022-023-030>036-040>044-050600-
WEST CENTRAL ALABAMA

CITY           SKY/WX    TMP DP  RH WIND       PRES   REMARKS
TUSCALOOSA     CLEAR     56  56 100 CALM      29.84R
$$

ALZ015-024>027-033>036-040>044-050600-
CENTRAL ALABAMA

CITY           SKY/WX    TMP DP  RH WIND       PRES   REMARKS
BIRMINGHAM     PTCLDY    56  55  97 CALM      29.85S
MONTGOMERY     CLOUDY    62  55  77 CALM      29.82S
SHELBY CO ARPT PTCLDY    57  54  89 CALM      29.84R
MAXWELL AFB    CLOUDY    61  56  83 W3        29.81S
GREENVILLE     MOCLDY    63  50  62 NW3       29.82R
$$

ALZ019-021-028-029-037-038-045>048-050600-
EAST CENTRAL ALABAMA

CITY           SKY/WX    TMP DP  RH WIND       PRES   REMARKS
ANNISTON       CLEAR     55  52  89 CALM      29.82R
ALEXANDER CITY CLEAR     55  55 100 W3        29.82S
AUBURN         CLEAR     55  54  96 N5        29.82R
$$

ALZ051>064-050600-
SOUTHWEST ALABAMA

CITY           SKY/WX    TMP DP  RH WIND       PRES   REMARKS
MOBILE         CLEAR     62  52  69 SW5       29.86F
BROOKLEY FIELD CLEAR     64  52  64 W6        29.86F
EVERGREEN      CLOUDY    63  51  65 W3        29.82S
$$

ALZ049-050-065>069-050600-
SOUTHEAST ALABAMA

CITY           SKY/WX    TMP DP  RH WIND       PRES   REMARKS
DOTHAN         CLOUDY    63  48  58 W8        29.83S
OZARK          MOCLDY    60  50  69 W3        29.80S
TROY           LGT RAIN  61  54  77 W7        29.83R
EUFAULA        MOCLDY    62  50  64 W5        29.79R
$$




USA.gov is the U.S. government's official web portal to all federal, state and local government web resources and services.